Location: Ellerstadt
(49.4644°N, 8.2615°E)
Time: 00:15:24
(UTC+00:00)

MOS 1 - Pass Details

Date: 03 March 2021
Orbit: 878 x 892 km, 99.1° (Epoch: 13 April)

Event Time Altitude Azimuth Distance (km) Brightness Sun altitude
Exits shadow 19:26:01 22° 166° (SSE) 1,837 5.7 -22.2°
Maximum altitude 19:29:50 85° 253° (WSW) 898 4.3 -22.8°
Drops below altitude 10° 19:35:34 10° 344° (NNW) 2,559 7.1 -23.6°
Sets 19:37:58 0° 345° (NNW) 3,500 7.9 -24.0°
